Theta_e
319 320 320 321 322 323 324 325 325 325 325 326 326 325 325 324 322 316 307 312 317 327 321 312 312 311 313 310 309 305 301 296 297 298 300 303 302 304 304 304 305 304 305 303 306
319 319 319 319 320 322 323 324 324 325 325 325 325 325 325 324 314 307 319 328 331 327 311 309 307 308 308 308 308 304 300 297 299 302 301 303 303 304 303 303 302 303 304 304 306
319 318 318 318 319 320 322 323 324 324 324 325 325 324 323 321 308 304 327 328 331 321 312 311 310 307 304 306 305 302 299 299 299 302 303 302 302 304 303 301 302 302 302 302 304
320 319 318 318 318 319 320 322 323 323 324 324 325 324 322 314 298 310 327 326 328 314 311 309 307 303 302 300 304 299 301 301 302 303 302 302 303 302 302 300 300 301 301 301 301
320 319 319 318 318 319 320 321 322 323 323 324 325 323 314 309 308 318 326 326 313 311 309 307 304 303 299 300 301 300 301 302 303 302 302 301 301 301 298 299 300 299 299 299 300
320 320 319 319 319 319 320 320 322 322 323 324 325 321 310 303 317 321 316 311 311 310 307 307 305 305 301 300 300 301 300 301 302 301 301 299 299 300 297 299 298 298 297 298 298
321 320 320 319 319 320 320 320 321 322 323 324 323 315 308 309 318 318 312 310 310 309 306 307 307 304 304 299 301 300 298 301 301 299 299 301 296 296 298 298 296 296 296 296 296
321 320 320 320 320 320 320 320 321 322 323 323 320 311 306 310 319 315 313 310 310 310 308 308 308 305 303 301 299 297 297 296 299 298 298 299 297 296 297 298 296 295 295 295 295
320 320 320 320 320 319 320 320 321 322 322 320 313 309 304 313 308 314 312 308 307 307 307 307 307 302 301 298 296 296 295 294 297 298 297 297 296 295 296 297 296 295 294 294 295
320 320 320 320 320 319 319 321 322 319 316 316 312 305 307 303 305 309 308 309 305 305 304 303 302 299 297 296 292 294 292 293 295 297 296 296 297 294 294 295 295 294 293 293 293
320 320 320 320 320 320 319 318 308 305 309 305 305 304 303 304 306 304 306 305 305 303 299 300 297 294 297 299 299 296 294 294 295 296 296 297 298 295 294 293 293 293 292 292 291
321 320 321 321 321 320 319 311 310 306 302 307 307 305 306 305 300 302 306 302 300 297 296 295 293 299 299 297 295 294 294 293 295 295 295 296 295 295 293 293 294 292 292 292 291
320 320 320 321 320 318 314 312 313 311 305 305 306 305 306 304 302 301 304 301 298 293 294 295 297 297 295 292 292 293 293 294 293 293 294 293 293 292 290 290 291 291 291 291 290
321 320 320 320 314 314 312 317 312 312 298 300 302 305 302 305 300 303 305 301 296 295 294 295 298 293 292 292 294 291 294 294 292 291 290 293 288 292 291 288 288 289 289 289 288
320 320 320 320 313 311 314 318 315 310 286 300 300 304 301 301 299 297 302 300 297 294 295 294 291 292 292 293 294 293 293 293 292 291 291 290 288 293 287 286 287 288 289 289 288
319 319 320 317 315 314 315 316 313 292 283 296 297 296 296 297 295 297 298 301 299 294 294 294 295 295 295 293 294 293 292 291 290 290 284 290 289 294 287 289 288 288 289 288 286
318 318 317 319 312 313 318 311 293 284 298 294 293 294 296 293 293 294 293 294 293 289 290 293 293 294 294 293 292 293 291 286 284 282 284 287 288 293 293 291 291 288 288 288 287
318 317 316 318 315 315 315 301 287 292 295 294 293 293 293 293 294 293 292 291 295 294 291 290 288 292 295 296 293 291 294 288 282 281 286 284 283 291 290 292 293 291 290 288 286
317 317 316 317 314 316 305 292 291 295 298 293 291 290 291 292 294 291 292 293 295 295 291 289 289 292 291 294 297 290 287 294 286 279 282 287 289 289 288 289 290 289 288 287 286
314 312 312 315 315 311 300 294 296 301 297 294 293 294 292 290 289 290 291 295 295 295 298 294 289 291 291 294 293 293 295 286 287 281 280 286 285 290 285 286 287 287 287 286 286
311 302 314 315 313 303 292 295 299 304 301 295 295 295 293 288 290 288 294 295 296 294 296 295 292 289 289 289 290 288 288 290 291 288 284 282 286 291 291 289 287 287 288 287 285
307 296 314 314 298 299 295 298 299 298 301 299 298 297 296 291 288 289 292 296 296 295 290 296 291 287 288 290 292 294 292 290 286 283 286 285 287 288 289 291 289 288 288 288 287
300 301 309 311 293 294 298 298 300 298 298 297 296 298 299 296 290 292 294 298 293 294 293 294 287 284 285 288 289 288 289 291 292 289 286 284 288 288 289 289 290 289 288 288 287
296 293 300 303 302 297 295 294 293 298 298 299 297 298 295 294 297 293 291 294 295 294 296 297 289 288 287 288 290 286 288 289 289 285 286 286 290 287 286 287 288 289 289 288 287
295 290 292 290 294 296 297 296 292 292 296 300 295 295 295 291 292 291 293 290 292 296 295 293 285 288 286 286 287 285 287 287 286 288 286 289 289 290 289 288 289 290 289 288 286
291 290 292 287 290 290 294 293 293 294 294 292 292 294 295 291 291 287 289 288 288 290 292 291 285 286 285 286 286 285 287 288 288 289 290 290 288 294 293 291 291 290 288 287 287
295 294 292 289 287 286 288 291 292 295 295 297 296 293 291 294 297 296 295 293 291 288 288 285 285 284 283 283 283 281 285 287 288 289 289 285 291 292 289 289 292 291 289 288 287
Wind_Speed
3 3 4 5 5 6 6 7 8 9 9 11 12 10 10 11 9 2 1 2 1 5 2 3 3 3 2 4 3 1 2 4 4 6 5 3 4 2 1 1 3 3 4 6 10
0 1 2 3 3 4 5 6 7 8 10 11 13 12 11 10 3 1 3 1 1 4 3 4 3 2 4 2 2 1 3 2 1 2 3 3 2 1 3 1 4 4 7 7 6
2 2 1 2 2 3 4 5 7 8 9 10 12 13 12 5 3 1 2 1 3 0 2 2 5 2 2 0 1 2 1 3 3 4 2 1 3 3 3 3 3 5 4 7 8
4 3 3 2 2 4 4 5 6 7 10 10 12 14 13 3 4 1 1 3 3 3 3 4 2 2 1 2 2 3 2 3 2 4 4 3 3 3 2 4 4 6 5 5 7
6 5 5 4 4 3 4 5 6 7 8 10 12 13 4 2 4 2 4 4 4 3 2 3 2 3 3 2 2 3 1 3 2 4 5 1 4 1 3 5 5 5 6 7 7
6 6 6 6 5 5 5 6 7 7 7 9 10 11 1 6 3 5 5 3 3 3 3 4 3 2 3 1 3 1 2 5 6 5 4 5 3 7 5 6 5 4 7 7 9
7 6 6 6 6 6 6 7 8 9 9 9 6 2 2 10 1 4 4 1 3 2 4 2 5 3 5 3 1 1 5 7 8 3 5 7 4 5 5 5 4 4 4 5 7
8 7 6 6 6 7 7 8 8 9 10 5 0 1 7 2 3 4 4 4 3 3 2 4 3 6 1 5 2 3 3 6 4 5 2 7 4 7 3 7 3 2 3 4 6
9 8 6 5 6 7 8 9 9 6 1 0 2 3 7 4 3 3 3 6 6 4 5 4 3 3 3 5 3 3 7 7 4 4 4 8 1 5 1 7 5 2 2 3 4
9 8 7 6 5 5 9 9 5 2 1 1 1 3 4 4 3 4 2 7 4 8 5 2 3 5 4 8 9 7 7 6 9 4 6 6 7 6 3 5 5 4 3 3 4
10 9 9 7 6 3 4 1 2 3 4 8 4 3 2 3 2 2 2 5 5 3 9 4 8 14 20 20 8 3 6 7 4 2 4 12 13 10 6 7 8 6 6 5 5
11 10 10 9 7 4 1 3 1 1 9 11 9 7 4 5 4 5 7 9 7 9 8 5 15 16 4 10 11 9 11 14 8 4 5 11 16 8 10 7 7 8 8 8 9
11 11 11 10 7 3 4 4 2 1 7 7 8 8 6 11 9 15 16 7 6 10 17 16 5 8 10 9 13 15 16 13 11 1 6 7 16 11 7 6 8 7 7 8 10
12 11 10 10 6 4 4 5 3 2 7 6 7 4 6 7 8 2 12 6 5 13 9 12 6 8 10 11 14 16 14 11 10 5 11 3 11 6 10 11 12 12 12 11 10
14 13 13 17 8 6 1 5 6 5 6 4 3 2 2 8 5 2 1 4 13 9 8 5 9 13 12 9 14 5 6 10 7 10 10 10 10 4 5 14 16 17 15 13 12
15 12 15 10 3 4 9 10 4 3 10 2 2 4 7 3 2 3 6 3 2 5 3 5 1 6 3 3 8 13 6 5 2 3 11 16 15 7 10 12 18 19 18 17 15
15 15 12 7 5 10 11 6 4 5 2 4 3 5 5 6 5 4 9 13 11 9 17 12 12 4 4 6 3 7 9 4 6 6 9 1 14 12 8 10 21 26 23 20 18
15 14 10 5 9 15 5 5 11 9 13 4 3 5 8 8 6 8 9 10 16 9 3 10 8 15 14 21 11 16 16 7 7 7 3 3 11 5 2 3 13 21 22 20 19
13 6 4 7 14 9 5 8 11 9 9 9 6 5 6 5 4 7 11 9 11 19 14 9 7 2 4 3 15 9 12 5 1 2 4 7 6 5 3 7 14 23 23 22 21
6 5 7 17 15 9 8 19 14 13 8 3 14 14 11 10 11 13 13 7 9 18 10 3 7 4 5 4 2 9 12 6 3 7 8 6 7 10 11 15 18 24 24 23 21
6 5 7 17 9 6 12 11 12 17 11 11 11 14 10 8 11 8 11 4 9 9 17 7 6 4 6 14 17 9 10 7 7 6 5 4 5 1 10 20 23 23 22 22 21
4 8 8 13 9 3 16 12 5 6 8 10 7 13 18 10 9 12 16 16 12 12 15 11 3 10 13 1 4 15 14 16 9 7 7 3 5 1 1 14 19 21 21 21 20
4 6 4 8 12 16 10 15 13 9 8 9 10 10 11 15 9 15 20 7 11 15 15 12 6 4 2 4 3 10 11 17 15 1 14 8 5 2 3 9 15 20 22 19 21
2 4 4 6 5 16 24 21 12 7 7 7 5 5 7 12 17 6 12 2 2 7 6 18 8 10 14 4 6 12 16 16 16 12 10 20 8 5 6 11 15 17 20 21 20
3 3 2 4 11 20 17 10 13 12 10 13 8 16 12 10 7 11 9 1 2 5 6 11 9 13 2 2 4 4 13 19 23 26 16 14 19 12 14 15 18 20 20 20 20
3 3 3 1 7 4 6 14 19 18 13 7 13 13 16 14 14 10 6 5 5 6 10 6 4 8 13 8 5 4 10 17 21 20 22 14 15 6 9 10 13 18 20 23 26
1 2 1 2 2 2 1 2 13 11 6 9 16 13 16 23 16 9 7 7 6 6 10 7 6 5 3 4 5 6 21 17 11 15 17 18 16 11 9 16 18 17 20 24 26
Wind_Direction
51 44 48 45 37 36 23 15 8 1 354 349 344 337 334 333 310 215 295 15 37 158 172 140 95 73 72 84 57 233 205 183 180 176 147 143 179 105 33 199 67 36 47 358 341
128 74 31 39 31 23 12 7 1 355 349 345 340 335 335 337 311 302 22 324 154 167 176 176 130 107 90 82 68 263 258 188 120 177 162 150 235 86 230 165 139 135 88 22 14
262 282 311 343 353 358 358 355 350 346 346 340 334 330 330 313 279 70 355 206 145 135 81 93 102 69 93 94 75 144 249 156 187 224 229 199 200 163 210 209 50 345 46 32 28
259 262 278 286 312 327 336 337 342 342 341 338 335 329 326 267 296 123 355 152 125 120 115 116 84 92 141 213 106 234 198 222 161 180 178 212 127 159 230 59 44 57 52 40 39
266 271 276 281 295 304 315 324 328 332 334 335 334 333 323 322 264 119 108 118 122 133 167 146 162 147 219 166 177 234 208 207 242 230 254 165 216 198 109 114 95 79 61 46 40
255 267 274 283 291 301 310 314 314 319 324 329 333 323 292 266 95 145 133 133 160 155 151 173 174 157 104 180 240 102 272 271 267 248 229 227 139 178 135 142 102 74 52 41 33
242 250 266 279 288 296 305 309 310 312 313 314 329 351 247 259 115 147 155 158 153 185 163 161 140 185 146 157 119 3 290 281 236 230 220 174 169 169 137 156 118 89 77 56 38
247 245 253 270 286 295 299 301 305 311 307 290 295 177 253 70 134 158 160 101 110 76 80 126 125 96 29 127 118 248 252 272 131 168 146 215 206 141 166 199 170 120 87 66 54
242 247 245 257 281 295 298 297 301 301 300 219 220 224 256 133 183 180 188 153 117 81 68 94 71 91 139 189 229 210 266 233 290 192 151 221 161 134 119 196 187 161 118 91 77
235 236 241 238 257 285 298 290 303 273 115 187 53 265 191 203 145 133 82 140 127 128 112 104 111 176 165 192 237 210 220 225 244 157 211 219 240 167 147 199 193 178 156 118 85
226 227 228 225 227 252 320 294 242 202 230 214 187 269 114 96 132 139 157 119 120 162 191 164 207 212 206 212 234 213 228 236 221 208 243 243 258 198 177 186 190 184 168 140 100
230 215 223 212 207 174 256 255 358 349 294 241 237 263 235 190 142 183 173 174 182 193 136 173 230 231 220 202 203 227 242 246 272 227 226 259 250 192 193 210 206 181 169 150 132
222 221 212 201 161 156 230 226 98 274 261 243 203 214 203 183 204 179 179 164 193 177 194 217 192 194 178 175 199 225 230 237 253 193 227 278 260 215 196 191 176 177 156 151 137
224 215 210 140 138 149 230 215 155 311 277 233 203 236 159 158 234 160 191 165 192 215 189 242 209 148 187 204 202 233 220 230 233 242 265 205 282 212 189 191 192 175 175 158 141
223 208 173 164 137 178 46 124 97 22 255 104 143 77 160 199 120 127 190 204 221 176 184 201 171 200 208 209 187 264 160 201 233 248 281 212 263 131 161 216 197 183 173 165 151
208 212 192 195 151 142 125 110 86 142 241 214 127 176 151 190 90 101 166 76 33 181 243 276 47 191 213 85 183 141 93 72 97 231 251 234 220 226 185 219 182 179 175 167 160
210 204 189 163 191 152 144 120 182 206 14 187 187 202 210 171 168 178 179 189 192 190 224 216 218 171 177 150 107 191 159 216 226 208 256 7 218 258 202 188 186 176 173 171 166
207 204 212 188 143 148 175 158 213 206 211 112 126 121 202 162 205 176 169 210 225 231 144 207 224 191 186 216 190 197 196 201 244 211 252 142 231 247 46 201 180 176 169 166 169
200 214 206 172 153 167 214 211 219 197 187 172 135 180 195 221 244 190 213 220 216 198 207 194 243 155 216 197 179 173 213 230 68 117 269 211 239 218 146 150 163 170 170 173 175
194 214 220 153 165 176 214 228 230 199 132 172 212 191 221 184 185 198 197 199 216 200 215 209 269 179 155 173 243 209 147 166 185 211 231 216 248 235 195 179 175 178 180 178 176
200 221 166 155 165 207 214 225 227 228 181 197 227 236 230 176 202 203 237 208 213 189 198 159 240 139 137 208 182 171 198 204 184 221 237 267 234 272 199 185 184 185 183 178 177
187 213 156 143 213 213 227 211 162 171 199 214 220 239 233 190 204 207 235 229 175 152 178 188 196 219 208 116 274 240 218 192 188 189 236 294 253 76 212 190 185 184 180 179 180
243 217 218 188 210 219 223 224 230 186 187 187 213 207 214 232 238 215 240 214 167 169 169 163 204 181 188 244 201 221 204 215 225 80 212 199 220 71 125 175 185 181 183 179 180
290 192 191 223 232 224 217 218 218 196 199 179 207 152 197 235 230 255 230 166 187 219 154 164 191 209 220 187 153 202 206 204 201 215 211 230 234 180 159 174 179 185 187 186 188
188 255 29 210 218 231 241 198 199 214 209 196 189 207 210 232 222 227 234 205 199 195 189 162 226 214 238 164 157 212 188 198 208 219 214 237 233 197 182 182 181 187 189 186 190
197 202 184 227 313 354 232 215 218 213 182 208 213 207 203 217 207 192 169 192 194 186 187 194 231 188 221 196 204 191 213 214 223 230 237 242 247 181 188 177 173 188 186 191 196
142 357 117 188 140 26 295 285 211 187 217 224 214 209 213 222 227 247 193 164 168 191 186 160 168 181 190 157 136 243 219 207 203 212 215 220 233 161 181 199 194 200 195 201 203